User: anonymous   Login
Location: Treviso
(45.6669°N, 12.2430°E)
Time: 06:18:04
(UTC+01:00)
Language:

nSIGHT-1 - Orbit

View from above orbital plane
View from above orbital plane
View from above satellite
View from above satellite

Ground track
Ground track

The orbit data is extracted from the following two-line orbital elements,

1 42726U 98067MF  19315.33685703  .00035303  00000-0  20124-3 0  9991
2 42726  51.6324 280.5312 0005254  45.5300 314.6130 15.78561064140767
Epoch (UTC): 11 November 2019 08:05:04
Eccentricity: 0.0005254
inclination: 51.6324°
perigee height: 331 km
apogee height: 338 km
right ascension of ascending node: 280.5312°
argument of perigee: 45.5300°
revolutions per day: 15.78561064
mean anomaly at epoch: 314.6130°
orbit number at epoch: 14076

The dashed part of the orbit path shows where the satellite is in the earth's shadow,  

DLR